Theta_e
300 303 303 303 303 302 302 303 303 303 303 304 302 299 300 300 293 292 299 305 305 306 310 314 316 320 322 324 325 327 328 328 329 330 330 332 332 336 338 340 341 340 340 341 341 342 342 343 343 342 343 345 346 346 345 344 345 347 348 347 346 346 345 343 343 345 347 345 344 345 347 345 345 344 344 343 342 343 346 346 346 345 347 347 347 348 348
301 300 301 302 303 303 302 303 303 303 302 302 302 303 304 303 300 301 307 306 307 308 310 313 317 322 327 328 328 329 329 329 330 330 331 333 333 336 338 339 339 339 339 338 339 340 340 343 343 344 344 345 345 346 344 343 345 347 347 346 346 347 346 345 345 345 350 350 345 343 344 345 344 344 343 343 342 340 344 345 345 344 344 347 347 345 349
300 300 301 302 302 302 302 301 303 303 304 303 304 304 306 308 307 309 308 306 306 310 312 316 321 327 330 329 329 329 330 330 331 329 329 330 333 335 335 335 337 337 337 337 337 337 339 340 340 341 342 342 345 346 343 343 343 345 347 346 346 346 346 348 348 347 350 355 350 345 344 344 344 343 342 343 343 343 341 343 344 344 343 344 344 347 350
295 301 301 300 300 302 302 300 301 302 304 304 303 302 305 302 303 305 305 303 303 309 316 318 324 326 327 327 327 327 328 330 330 328 328 330 332 333 332 332 332 332 334 334 335 336 337 340 341 341 341 341 340 339 340 341 342 345 345 345 345 346 346 347 348 348 350 353 351 348 349 348 348 347 345 347 346 346 344 341 342 343 341 342 346 350 352
293 299 300 299 299 298 297 298 298 302 305 305 305 307 311 307 307 303 301 302 308 311 317 318 318 323 324 326 326 327 328 328 329 328 330 332 333 333 331 331 333 333 334 335 336 337 338 339 339 337 337 336 336 337 338 340 344 342 342 344 344 345 347 347 348 349 350 352 349 346 343 344 345 343 345 346 348 347 347 346 344 342 343 347 350 351 350
293 299 302 301 296 289 290 299 302 303 302 303 301 302 305 306 306 301 300 306 310 315 318 319 319 320 323 326 327 330 329 328 328 329 333 334 334 334 333 333 335 335 336 336 338 341 341 340 338 339 341 339 340 342 340 340 340 340 340 340 339 340 342 345 345 345 347 348 345 344 344 344 345 344 346 344 344 346 349 349 346 346 348 349 349 347 346
293 299 299 294 288 288 298 308 308 306 305 304 303 305 308 306 307 309 308 310 313 317 319 321 322 323 325 328 329 329 329 329 330 331 333 334 335 335 334 334 336 336 336 337 338 337 336 338 339 340 338 341 340 340 340 340 339 337 338 338 339 339 340 340 341 343 344 342 342 344 344 345 344 345 345 343 342 345 347 347 347 347 347 345 345 345 344
296 295 293 288 287 296 308 307 309 310 305 304 303 303 303 308 307 308 308 310 312 315 318 321 323 325 326 327 328 329 328 328 329 332 332 334 337 336 336 336 337 336 337 337 337 334 336 336 336 337 338 341 341 338 340 338 339 337 336 336 336 337 339 339 339 342 343 341 343 344 343 344 343 343 343 344 343 342 343 342 345 347 346 345 343 341 340
293 292 291 292 299 299 302 306 307 305 303 304 301 295 301 307 309 310 311 313 315 318 321 323 324 325 325 323 323 328 329 329 330 333 334 336 338 338 339 340 340 339 340 339 337 336 335 336 336 337 338 339 340 340 338 337 337 336 336 334 334 334 337 337 340 341 343 339 339 342 343 343 343 343 342 341 342 343 343 343 344 345 344 343 341 340 340
297 291 290 289 289 290 294 304 310 311 310 307 305 304 299 306 309 311 314 314 316 319 321 322 323 323 319 314 316 323 328 330 331 334 337 339 339 340 341 341 342 341 340 339 339 337 335 335 335 335 337 339 336 337 338 339 339 338 338 337 337 336 335 337 341 343 343 341 340 341 341 341 342 343 343 343 342 344 341 342 344 343 341 340 339 340 340
298 296 290 288 288 292 300 304 308 311 310 309 308 299 297 306 310 311 316 315 318 320 321 321 319 311 308 310 316 323 326 327 330 333 335 338 340 340 340 341 340 340 338 339 339 338 337 335 337 337 338 337 335 335 336 337 340 340 340 340 339 338 339 342 343 343 342 341 340 340 340 341 342 341 342 342 340 340 339 339 340 341 341 338 338 339 339
297 294 293 289 293 297 304 308 313 312 310 309 303 292 292 300 311 314 317 316 319 321 322 319 310 309 307 309 317 325 327 325 326 328 331 334 336 337 340 340 339 338 340 338 334 334 334 335 337 337 337 335 338 335 335 337 339 338 338 339 339 341 342 342 343 342 341 341 340 338 338 339 340 340 340 339 339 339 340 340 339 338 338 337 336 336 337
298 299 292 294 296 307 311 310 311 308 310 305 293 289 296 305 311 316 317 317 318 318 317 316 313 313 315 320 324 327 325 323 325 330 332 334 337 338 338 340 343 337 336 335 334 334 333 334 337 336 336 333 334 336 337 339 339 338 338 338 338 338 339 339 339 339 338 337 336 335 335 335 337 338 339 339 339 340 340 339 339 338 337 336 336 335 334
294 293 292 291 294 300 307 312 312 311 308 295 291 299 305 312 311 317 318 317 318 319 317 316 317 320 323 326 326 325 323 323 327 333 337 339 340 341 344 343 338 336 336 335 334 334 335 335 337 336 335 334 333 336 339 338 338 338 336 335 334 334 335 335 336 336 335 335 334 334 334 333 332 332 334 336 337 335 336 336 336 336 335 335 334 333 332
296 297 294 290 287 301 314 311 307 311 301 298 302 309 315 313 316 318 319 320 321 322 320 321 322 323 325 327 326 327 329 329 331 334 335 335 335 335 335 337 339 337 334 334 334 333 335 337 337 335 334 334 335 339 337 337 338 337 336 335 333 333 334 335 335 334 334 334 333 333 333 333 332 331 331 331 332 332 330 329 328 327 327 329 330 329 329
291 293 291 290 295 305 314 310 301 304 307 309 312 312 311 316 319 320 322 323 324 324 322 321 321 322 322 325 327 328 329 331 332 334 334 334 334 334 337 338 337 337 333 333 331 331 334 335 334 335 334 337 338 336 333 336 338 338 336 335 334 334 334 333 333 333 333 333 333 333 333 332 331 330 330 330 330 330 329 329 327 326 326 327 326 327 327
300 299 300 305 308 310 313 315 310 314 315 315 314 315 315 315 316 320 323 323 323 323 322 320 319 318 320 326 329 329 330 331 332 333 333 333 333 334 336 337 339 335 332 331 331 331 332 333 333 333 336 339 338 334 334 338 337 336 335 335 334 334 334 333 333 332 332 332 332 333 332 332 330 330 330 330 329 329 329 328 327 326 326 327 326 325 325
311 311 311 313 312 315 315 316 316 316 317 318 318 317 315 316 317 321 322 322 322 321 322 320 319 319 320 322 324 329 331 332 333 334 334 334 335 337 337 335 335 333 332 331 331 331 332 334 334 336 337 338 335 334 337 339 337 335 334 334 333 333 332 332 331 331 331 331 332 332 332 331 331 331 331 331 329 329 328 327 327 326 325 325 325 324 324
297 297 307 311 311 315 318 318 320 320 320 319 318 317 317 318 320 322 324 324 323 323 322 321 321 322 322 322 326 330 331 332 332 333 332 333 334 334 333 335 336 332 332 331 330 331 331 333 335 337 337 337 336 336 336 337 336 334 333 333 333 333 332 331 331 330 330 330 331 332 332 332 331 331 330 330 329 329 327 327 326 326 326 325 325 324 323
301 303 311 313 315 314 316 316 315 316 318 319 319 318 318 319 322 324 324 325 325 326 323 324 324 323 324 324 327 330 331 331 331 331 332 332 333 334 335 335 333 332 331 331 331 331 331 331 335 337 338 337 337 337 337 337 335 334 333 333 332 332 331 331 330 330 330 333 328 324 323 326 330 330 329 329 328 328 327 327 326 325 325 325 324 324 323
307 311 311 314 311 312 314 316 319 320 318 318 319 319 319 319 319 319 321 325 325 324 324 323 322 321 324 330 332 332 332 331 331 331 332 332 333 333 333 332 332 331 331 332 331 331 331 331 333 336 335 336 338 337 337 336 335 334 333 334 332 331 331 331 330 329 327 325 322 319 316 313 309 308 312 323 324 322 323 324 328 327 326 326 326 325 324
303 305 308 315 304 304 310 314 319 322 322 320 319 319 319 318 319 320 320 321 322 322 321 320 321 320 324 330 331 331 330 331 331 332 333 333 333 332 333 333 332 332 332 332 332 331 330 330 332 332 332 333 335 337 337 336 334 333 334 332 330 329 328 326 325 325 323 322 321 320 317 315 313 312 308 301 306 323 323 323 321 319 319 325 326 325 323
305 310 313 316 315 313 314 316 317 323 325 320 318 319 321 321 320 320 322 322 322 324 326 328 326 324 327 330 331 330 330 331 333 334 333 333 332 332 333 332 331 331 331 332 332 331 330 331 331 332 331 332 334 337 338 337 335 333 330 328 326 325 326 324 324 324 322 321 320 319 318 317 317 317 315 313 300 299 309 317 311 306 307 309 314 319 325
315 318 317 320 314 314 316 317 319 324 325 322 320 321 321 321 322 322 321 322 321 321 323 326 329 330 331 332 332 330 330 331 332 333 333 334 333 333 333 332 331 331 331 332 332 332 331 332 331 331 332 332 333 337 337 336 336 332 329 327 325 324 323 324 325 324 322 322 322 321 320 319 318 318 317 315 313 303 299 304 307 305 304 304 305 308 312
312 319 320 323 323 322 322 320 319 322 325 322 321 322 323 323 323 324 322 322 323 324 323 323 325 329 331 332 332 331 331 332 333 334 333 333 334 332 332 332 331 331 331 331 331 331 331 331 331 332 332 333 336 338 338 336 334 330 327 326 324 323 324 325 325 325 323 323 323 322 321 320 319 318 317 316 314 312 310 301 299 300 302 303 303 304 304
321 320 321 323 323 324 322 317 318 320 323 323 325 327 331 331 325 323 323 323 323 324 324 323 324 327 332 332 331 331 331 332 334 335 332 332 332 331 331 332 332 332 331 332 332 333 333 333 333 333 332 335 337 338 338 334 332 330 327 325 324 324 324 324 323 322 322 323 323 323 322 321 319 318 318 316 314 315 315 315 314 307 302 301 302 302 302
322 323 322 320 321 323 325 320 318 324 324 325 325 328 331 333 334 325 324 324 324 325 324 325 326 327 328 331 331 332 332 333 334 332 332 332 331 331 332 333 333 332 332 331 331 334 335 333 333 332 332 334 334 333 334 333 329 325 324 324 324 331 332 329 322 323 323 323 323 322 322 322 321 320 318 318 319 319 319 318 316 314 312 312 306 304 308
321 323 323 317 316 319 323 327 326 326 326 326 327 329 328 326 324 323 324 324 324 324 325 328 330 329 329 330 331 332 333 332 330 330 331 332 332 333 333 332 332 332 331 331 330 334 335 333 332 331 330 331 331 331 332 329 326 324 324 325 326 327 328 328 324 324 324 323 324 323 323 322 321 321 322 322 321 320 318 318 315 312 310 307 307 308 305
319 321 322 321 322 323 326 325 323 323 324 324 326 327 327 324 322 323 323 324 324 324 324 326 327 328 330 329 331 330 330 330 329 330 330 331 333 332 332 332 332 332 331 330 330 332 332 330 330 329 328 329 330 330 329 327 325 325 325 325 326 326 326 324 324 324 324 324 324 324 326 324 323 323 323 323 322 319 318 315 313 311 308 307 308 309 310
318 320 320 318 319 320 323 321 322 323 325 324 322 324 325 324 322 322 324 324 325 325 325 325 325 325 327 329 329 329 329 329 330 330 331 332 332 331 332 331 331 329 328 327 326 328 330 329 328 326 328 330 330 329 328 326 325 325 324 324 325 324 323 323 324 324 323 323 325 329 326 325 324 324 323 321 320 319 317 315 314 311 309 310 314 311 310
318 320 320 322 322 322 323 322 322 323 324 324 323 323 323 322 322 321 322 323 323 325 326 327 326 326 327 328 327 327 329 330 330 330 331 331 331 331 331 330 328 325 325 325 324 327 327 326 326 326 329 330 330 329 328 326 325 324 323 322 322 324 325 326 325 323 323 324 326 325 325 325 324 324 323 321 320 318 316 315 313 312 313 312 312 312 310
315 316 317 318 320 321 322 320 320 322 322 323 323 323 322 320 322 322 322 323 324 325 326 326 327 328 328 327 327 328 328 328 328 330 330 330 330 331 331 330 329 330 325 324 324 325 325 324 324 326 329 330 330 330 329 327 325 323 322 327 323 321 324 326 323 323 324 325 326 326 326 324 323 324 324 322 319 318 316 314 313 313 313 313 313 311 310
312 311 311 313 315 314 316 317 321 321 322 322 322 323 325 324 324 323 323 324 325 324 326 326 327 327 329 328 328 327 327 327 327 328 328 328 329 330 330 330 329 327 324 324 324 325 325 325 324 325 328 329 329 330 330 328 325 323 322 324 322 322 328 324 324 322 325 325 324 324 323 324 325 324 322 322 320 319 317 316 315 315 314 314 313 311 311
316 314 315 316 316 314 314 315 319 320 319 321 323 323 323 325 323 323 323 323 323 326 326 326 327 329 330 329 328 326 326 326 323 324 327 327 328 328 328 332 328 327 325 324 323 323 326 327 325 325 328 328 328 328 328 328 326 324 322 322 322 321 322 321 323 323 324 324 324 327 325 325 324 323 323 322 320 319 318 318 318 316 315 314 313 312 309
322 322 323 323 324 323 321 318 319 319 320 320 321 322 322 323 323 322 324 321 322 323 326 327 326 326 326 325 326 326 326 325 325 325 325 326 326 325 325 325 324 324 325 323 322 323 327 328 326 326 327 327 327 327 326 326 326 324 321 322 323 322 321 322 321 322 323 323 323 322 321 323 323 327 325 322 320 321 320 319 318 317 316 315 314 313 311
323 321 321 322 323 324 323 321 321 321 322 321 323 322 321 322 325 324 324 323 324 324 324 323 324 324 323 322 322 321 320 322 323 324 323 323 324 322 323 324 323 322 323 323 324 324 326 327 334 334 327 326 324 325 324 323 324 323 323 323 323 322 322 322 321 322 322 321 321 321 320 325 326 325 324 322 321 321 319 319 318 318 317 316 315 314 313
325 325 324 325 325 324 323 322 321 322 324 323 322 322 324 325 327 323 320 320 321 322 324 324 323 322 323 323 324 325 325 324 324 323 323 321 320 320 321 321 321 321 322 321 324 325 326 328 336 339 329 324 323 321 323 333 323 322 323 323 321 321 320 320 319 318 319 319 320 320 322 325 323 324 324 321 321 320 320 319 319 319 318 317 316 315 314
324 325 325 325 324 325 325 326 326 324 323 322 323 324 325 326 324 319 321 323 323 323 324 324 323 323 323 323 325 327 327 325 323 323 322 322 322 320 320 319 319 320 321 323 325 325 324 330 337 336 323 323 322 320 326 337 333 323 321 321 320 320 320 319 319 318 318 316 320 318 320 320 321 322 322 321 321 321 320 320 319 319 318 318 317 316 314
323 323 324 324 325 324 324 326 327 325 324 322 321 321 325 329 325 321 321 321 322 324 323 323 323 321 322 323 324 324 324 325 325 324 322 321 321 321 320 320 321 322 322 324 325 325 326 332 330 330 323 322 321 321 327 338 337 321 321 320 319 318 320 319 318 318 317 317 317 316 317 317 319 321 321 320 320 321 321 321 320 319 319 318 317 316 315
320 320 321 322 322 322 322 321 323 324 324 324 323 323 324 327 325 324 321 320 321 324 321 321 321 320 321 322 324 323 323 323 323 323 323 322 321 320 321 322 323 324 326 330 328 326 330 335 331 327 324 323 321 321 324 333 333 322 320 319 318 317 317 319 318 317 316 315 317 321 316 318 316 319 320 320 320 320 320 321 321 319 319 319 319 317 316
320 320 320 320 320 320 321 321 321 322 323 324 324 324 324 326 325 323 323 323 323 323 322 321 321 321 322 322 323 324 324 322 323 324 323 322 320 320 320 320 324 326 328 328 327 329 328 331 328 325 324 324 323 326 322 332 328 320 320 319 318 316 316 317 316 317 317 315 317 316 315 316 316 318 318 319 319 319 319 320 320 319 319 319 319 319 317
320 321 321 320 319 320 320 320 320 321 322 322 324 324 324 326 324 322 322 321 320 321 321 321 326 322 320 321 322 323 323 322 322 322 323 323 322 321 320 322 326 326 330 330 331 330 324 324 324 327 325 325 324 332 331 327 326 320 319 319 318 317 316 317 317 316 317 316 316 316 316 315 316 316 316 316 317 318 318 319 319 318 318 319 319 319 318
321 321 320 318 318 318 321 320 319 320 320 321 323 323 323 324 325 323 322 319 320 319 321 319 323 325 321 319 319 321 320 320 321 322 322 324 324 324 323 323 325 328 333 329 328 325 324 325 326 326 329 328 327 330 332 326 324 322 320 319 319 317 316 316 317 316 316 316 315 316 316 315 315 316 316 315 315 316 317 317 318 317 317 319 319 319 319
320 319 319 318 318 319 319 320 319 319 319 320 321 321 322 322 323 324 322 321 320 320 319 319 319 319 319 318 318 318 319 319 318 318 318 320 321 324 326 327 327 331 333 327 325 325 325 326 327 328 330 328 329 330 329 327 324 322 321 320 319 318 316 315 316 316 315 315 316 316 316 317 316 316 316 316 316 315 316 316 317 317 317 318 319 319 319
320 320 320 320 320 319 318 319 319 318 318 319 320 321 323 322 322 323 323 321 321 321 321 320 320 320 320 319 320 321 321 322 323 321 319 320 320 323 326 332 331 331 329 328 324 324 325 326 326 328 328 326 324 327 328 327 325 321 320 320 320 319 317 316 315 316 317 316 316 316 317 317 317 317 317 317 318 317 316 316 316 317 317 318 318 318 318
319 320 323 329 320 319 319 320 320 319 320 320 319 320 321 320 321 322 323 322 322 324 323 321 320 320 320 320 320 321 321 323 324 325 327 326 325 325 326 332 327 333 331 330 326 325 325 328 327 325 324 324 324 326 327 325 324 324 321 320 319 318 318 318 317 317 317 317 317 316 317 317 317 318 318 318 318 318 317 316 316 317 318 319 319 319 319
319 320 319 318 319 319 320 320 320 319 319 317 316 316 319 321 321 321 322 322 323 323 322 321 322 322 322 322 322 320 319 321 323 325 327 327 328 331 332 335 334 330 328 326 326 325 325 326 326 323 322 322 324 326 326 326 325 324 324 323 320 318 318 317 317 317 318 318 317 317 318 317 317 318 317 318 318 318 317 317 317 317 317 318 319 319 318
318 318 318 318 318 319 318 318 317 316 317 316 316 317 319 319 320 320 321 321 321 320 320 321 322 322 321 322 323 324 324 322 319 322 324 327 328 328 326 327 327 331 328 328 329 331 330 329 327 324 322 321 323 323 323 322 321 321 323 323 323 322 319 318 317 316 316 316 317 317 317 316 316 317 317 317 317 317 317 317 317 317 317 318 319 319 319
319 318 318 318 318 317 317 316 316 317 317 317 318 317 318 318 317 317 318 318 319 319 319 319 319 320 323 324 324 324 326 325 325 323 323 325 324 324 325 329 334 332 328 326 324 324 326 324 323 322 322 324 323 320 321 320 322 322 323 323 323 323 321 323 322 320 317 315 315 316 317 317 317 317 317 317 318 318 316 316 317 317 317 318 318 319 319
318 318 317 315 316 316 316 315 314 315 315 316 317 317 318 317 316 317 316 316 316 320 315 317 317 318 319 320 321 322 323 324 326 329 329 329 328 326 324 324 323 329 330 325 323 324 329 326 323 323 323 322 321 321 321 320 321 321 322 322 321 322 322 320 318 317 319 318 316 315 315 316 317 318 317 318 318 317 317 317 316 317 317 317 317 318 319
315 315 315 317 317 317 318 316 317 317 316 318 318 318 318 317 316 318 317 320 316 316 315 316 317 318 319 319 320 321 322 323 322 328 325 325 325 327 332 328 326 328 324 324 324 324 325 324 324 325 325 323 321 322 322 321 321 321 321 321 321 321 322 320 320 321 321 321 320 320 316 314 315 316 318 318 317 317 317 316 316 315 316 317 317 318 319
315 315 314 315 315 315 314 316 317 317 317 317 317 318 317 317 316 316 316 329 317 315 316 316 316 319 321 320 320 319 322 324 321 322 324 324 323 321 321 326 321 319 320 321 322 322 323 323 327 328 327 320 321 322 322 321 322 322 323 322 323 323 322 322 322 322 322 322 321 320 319 320 319 315 315 316 316 316 316 316 316 316 316 316 317 317 318
Wind_Speed
3 3 3 4 4 4 3 2 1 4 4 2 2 2 5 7 5 7 3 5 7 7 7 9 10 11 11 10 10 11 10 6 3 3 3 4 4 4 6 7 5 3 4 4 4 4 4 4 5 5 4 4 3 3 2 11 10 4 2 5 7 7 10 13 14 9 6 6 7 10 13 13 12 12 11 10 7 8 8 9 9 11 12 14 15 15 9
3 3 2 4 4 1 3 2 3 4 6 7 7 2 3 5 2 5 11 7 5 6 8 11 13 11 11 9 5 3 4 6 6 4 5 5 5 6 7 6 4 3 2 1 1 2 2 4 4 3 4 4 4 3 9 14 13 13 14 15 14 11 9 10 11 8 7 8 9 9 11 13 13 12 11 10 9 8 9 10 10 9 9 10 10 8 7
1 3 2 0 4 5 4 4 5 4 3 5 2 4 7 10 9 8 9 8 3 4 4 4 2 7 7 6 7 9 7 5 5 5 6 5 7 7 5 4 4 4 1 1 0 1 1 1 3 3 2 2 1 5 9 12 13 13 12 10 10 11 10 9 9 11 10 8 8 9 10 11 11 11 11 10 10 9 9 10 11 9 9 10 8 8 9
1 1 1 1 2 7 7 6 5 3 0 1 3 8 8 8 6 6 9 7 4 4 1 3 8 9 11 10 8 6 5 6 6 7 6 5 6 6 5 4 3 2 2 2 2 3 2 1 2 2 0 2 2 3 4 7 9 9 11 11 11 12 11 10 9 10 9 6 4 5 3 3 3 2 5 7 7 9 9 10 9 8 8 9 9 9 9
2 5 1 1 3 4 2 5 6 4 1 4 3 1 3 6 12 11 8 9 9 8 6 9 4 9 7 7 6 6 5 6 7 7 6 6 7 6 4 4 4 4 4 3 2 1 1 0 3 9 9 7 8 9 9 5 2 4 6 6 6 7 9 10 11 11 9 7 5 6 7 7 7 6 2 2 5 6 7 7 8 8 7 8 9 10 11
2 5 1 0 0 1 3 4 3 3 3 5 5 2 2 4 3 4 8 7 6 8 8 12 10 9 10 10 7 7 10 8 6 5 6 7 8 5 4 4 5 4 1 0 1 3 5 7 7 1 4 4 4 3 4 5 5 7 5 4 7 9 8 5 3 2 1 3 8 7 4 3 6 7 7 3 2 2 4 5 7 8 8 10 10 11 11
3 1 3 2 0 6 7 4 2 4 11 9 7 3 1 3 2 7 5 10 13 14 13 14 13 10 6 6 8 4 5 7 6 7 6 7 7 6 4 4 3 3 2 1 6 6 5 7 7 6 2 4 7 8 9 9 10 10 7 5 6 7 7 3 3 3 3 6 7 5 3 5 5 5 4 2 2 4 6 9 10 10 11 10 10 10 10
1 1 2 1 3 4 2 2 3 4 5 3 4 1 1 1 5 9 9 4 6 7 7 5 6 8 6 3 1 4 5 5 7 6 6 7 7 6 5 6 4 3 3 3 6 5 3 5 5 5 7 7 10 11 8 9 8 7 5 3 3 5 4 3 6 4 5 9 8 7 7 4 4 5 7 9 8 5 3 3 3 7 8 10 11 9 9
2 3 3 6 4 4 3 2 1 1 2 0 2 2 1 5 1 9 9 9 10 10 9 9 7 6 7 6 1 1 3 3 3 6 5 6 6 4 4 6 5 3 4 6 7 4 3 4 5 3 4 4 5 4 3 1 3 3 2 0 0 2 3 1 2 7 6 9 7 9 7 8 8 6 6 6 6 5 6 6 7 8 9 8 8 10 10
2 3 1 2 2 1 4 3 5 2 2 6 6 1 2 5 4 4 15 12 10 10 7 8 7 6 9 4 3 3 3 3 4 2 4 3 4 6 6 3 5 6 5 6 6 6 5 3 2 2 3 8 1 3 1 1 2 3 4 4 3 3 3 1 2 6 9 10 10 8 7 8 8 7 7 6 6 4 4 8 9 7 6 7 7 8 10
0 1 1 2 2 4 6 2 5 5 0 10 3 5 2 4 2 5 13 10 10 13 12 9 6 5 4 5 6 6 3 3 4 6 5 5 5 6 8 9 7 6 5 5 5 4 4 4 5 6 6 3 5 2 2 3 1 2 4 5 5 3 3 4 4 5 6 7 8 8 9 9 8 8 8 8 3 3 2 1 2 5 6 7 5 5 7
4 3 1 2 2 0 2 8 6 3 7 6 7 3 1 4 2 6 13 14 13 10 11 9 6 8 5 7 7 4 5 5 5 6 6 5 5 7 7 5 6 7 5 5 3 3 2 4 2 2 1 1 3 3 2 2 3 2 2 4 5 5 5 5 6 7 8 8 8 5 3 3 3 4 4 4 7 9 8 6 5 4 6 6 9 6 5
5 5 3 0 2 3 4 4 5 1 2 6 4 5 5 2 3 10 11 12 11 11 10 6 5 5 5 7 6 5 5 5 3 2 4 4 9 9 8 8 7 6 4 4 5 3 3 2 1 1 2 3 3 3 3 3 3 2 3 5 4 3 2 1 2 3 2 1 3 5 4 3 2 1 3 6 6 7 9 9 10 9 11 10 10 10 9
3 3 2 6 4 7 8 0 0 0 3 3 5 5 4 6 4 7 12 11 8 8 8 4 4 3 2 4 5 6 5 5 3 7 9 9 8 6 7 9 7 6 5 5 3 2 1 2 2 2 3 3 3 3 4 5 4 4 3 4 3 3 3 2 2 2 3 6 6 5 4 4 4 4 2 2 3 2 6 7 9 9 8 9 10 11 10
2 1 1 2 4 3 3 6 1 2 2 4 4 1 1 5 10 10 8 11 8 9 5 5 7 5 5 6 7 6 7 8 9 9 9 9 8 8 7 6 5 7 6 4 3 2 1 2 3 2 3 4 3 3 5 4 4 4 5 4 4 4 3 3 4 4 5 6 5 4 4 5 6 5 4 6 5 5 6 7 7 6 4 3 6 9 8
2 2 3 4 5 4 5 5 6 3 4 8 7 9 5 4 8 8 7 4 7 9 12 8 6 6 7 4 7 7 6 8 8 8 7 6 5 6 6 7 6 6 6 3 2 1 0 1 3 3 3 5 4 5 4 3 4 5 5 4 4 4 3 3 4 4 5 5 5 5 5 6 7 7 7 7 7 5 6 6 6 6 6 5 4 4 11
2 1 2 6 5 7 4 1 4 4 4 4 5 8 9 8 4 4 9 8 6 10 10 8 8 5 5 8 9 10 9 9 10 10 9 8 7 7 8 6 6 5 7 6 3 2 0 1 3 3 3 5 6 6 4 4 5 5 5 5 5 4 3 3 3 3 4 4 4 4 4 6 8 7 7 7 7 5 6 7 7 6 2 6 7 7 5
2 4 4 5 3 3 6 3 3 8 5 4 5 11 8 4 7 8 10 9 8 7 9 10 3 5 6 7 4 6 7 7 7 8 8 7 7 8 7 6 6 6 5 5 4 4 2 1 3 3 3 6 7 5 4 4 5 5 5 5 5 5 4 3 3 3 5 5 4 4 4 4 6 7 8 8 8 7 7 7 6 5 6 5 10 11 3
6 3 8 7 5 3 5 5 5 5 5 5 4 7 7 6 6 6 9 11 10 9 7 9 8 6 7 7 6 7 7 8 8 9 9 8 9 10 8 7 8 7 6 6 5 4 3 1 3 3 4 3 5 5 5 5 5 5 4 5 5 5 5 4 3 3 4 3 4 4 4 4 4 5 6 8 9 8 7 8 7 6 7 8 9 8 8
2 2 4 7 3 2 3 1 5 6 6 5 5 7 6 7 5 8 9 9 8 7 7 8 9 7 7 10 8 8 8 8 7 8 8 8 6 6 8 7 7 7 6 6 6 4 4 2 3 3 4 4 4 4 4 4 5 5 4 3 4 5 6 4 3 3 4 8 6 4 5 4 4 5 5 5 7 7 7 8 9 7 7 6 7 8 11
4 3 2 7 4 4 4 3 4 2 4 8 5 6 8 8 8 5 5 6 8 8 10 8 9 8 7 11 11 11 8 7 7 7 8 7 8 8 8 6 7 8 7 6 5 5 4 3 3 4 4 3 3 3 4 5 6 5 5 5 5 6 6 4 3 2 3 4 4 5 5 6 6 5 4 5 6 6 4 4 6 9 9 7 7 6 8
2 1 1 2 3 2 6 5 1 1 1 7 7 6 8 7 7 7 9 5 3 5 7 8 9 10 7 8 11 11 10 10 10 9 9 8 8 7 6 6 6 6 5 7 6 5 3 3 3 3 3 3 3 4 5 6 6 6 5 5 5 5 4 4 4 4 4 4 5 5 5 5 5 6 9 10 8 5 6 7 12 9 7 7 8 8 8
4 5 6 3 2 2 4 5 5 0 0 5 7 8 7 5 6 9 12 9 6 5 2 4 8 8 10 7 9 10 9 9 9 10 11 10 8 8 7 7 6 6 6 6 6 5 4 3 3 3 3 3 4 4 6 6 6 6 5 5 5 5 5 4 4 4 4 4 5 5 5 5 5 6 6 9 15 14 8 7 10 13 14 13 11 8 8
2 2 3 0 1 1 3 4 3 1 1 6 5 4 5 6 7 7 8 10 11 4 3 2 4 10 9 9 10 9 6 7 7 6 6 8 9 9 7 8 8 7 7 6 6 6 4 4 3 3 3 3 4 4 5 6 7 7 6 5 6 5 5 5 6 5 4 5 4 4 4 4 5 5 6 7 7 14 14 8 11 15 14 13 13 13 11
2 3 2 1 1 2 1 2 2 1 3 6 7 6 7 6 5 8 9 5 6 9 6 4 3 6 12 8 10 11 11 9 9 9 8 7 8 8 7 7 7 7 7 6 5 5 5 4 3 3 3 3 3 4 4 6 8 8 6 6 6 5 5 6 6 6 5 5 5 4 4 5 5 5 6 6 7 6 10 14 15 12 11 15 15 14 14
2 0 1 1 2 3 4 2 4 6 1 5 4 3 4 7 8 8 8 8 6 6 7 5 6 3 8 10 8 9 10 10 9 9 8 7 7 7 7 8 7 6 6 6 6 5 5 5 4 4 4 3 4 5 5 6 7 8 7 6 6 6 6 7 7 5 5 5 5 5 4 4 4 5 5 6 7 7 8 7 9 11 13 10 14 16 14
2 0 2 4 4 5 6 5 2 6 3 0 6 6 6 6 8 7 4 4 6 5 5 6 6 6 4 7 8 9 11 8 8 7 7 8 8 8 7 6 7 7 7 6 5 6 7 5 4 4 5 4 4 5 5 6 6 6 6 6 6 8 12 9 7 7 5 5 5 6 5 5 5 5 5 5 6 7 8 8 8 7 6 4 4 11 13
3 3 3 3 0 1 3 4 3 3 0 2 5 5 4 7 8 9 7 4 3 1 2 5 7 7 7 6 9 7 8 10 9 7 7 7 6 6 7 8 7 7 6 6 5 5 5 5 5 4 4 5 5 5 6 6 6 6 6 7 7 7 6 8 7 7 6 5 5 6 6 6 5 5 5 5 6 6 6 7 7 7 6 4 3 4 11
2 2 2 3 1 1 0 1 5 4 0 2 0 3 5 6 5 6 5 5 5 4 4 1 1 4 9 6 8 9 8 8 8 8 7 6 6 7 6 8 7 7 6 5 4 5 5 4 5 4 4 4 4 4 6 7 7 7 7 7 7 7 6 6 6 6 6 6 5 6 6 6 6 6 5 5 5 6 7 7 7 7 6 5 6 6 6
1 2 3 4 3 3 4 4 2 4 5 4 2 0 2 6 5 4 5 4 4 5 3 3 3 2 3 6 6 9 10 9 10 7 7 7 6 6 6 6 6 4 4 5 5 5 6 5 5 4 4 4 5 5 6 7 7 7 8 8 7 8 7 6 6 6 6 6 6 7 7 6 6 6 6 7 7 7 7 8 8 8 8 6 6 9 10
2 3 5 5 6 4 5 2 1 1 3 4 3 0 0 3 6 6 5 4 3 4 4 5 4 4 3 4 4 4 5 6 7 7 7 7 6 6 6 6 8 8 8 7 6 7 8 7 6 6 6 6 6 6 6 6 6 6 6 6 6 8 10 10 7 7 6 6 6 7 6 6 6 7 7 7 7 6 7 7 7 8 7 7 8 8 7
2 4 6 4 3 2 2 3 2 1 1 2 2 1 1 2 4 5 4 4 5 5 5 4 4 5 4 3 3 4 6 6 6 7 7 6 6 6 6 7 5 6 7 7 7 7 8 8 8 8 7 7 7 6 6 6 6 7 6 6 6 6 8 10 6 7 6 6 6 6 6 6 6 6 7 7 7 8 8 8 8 8 8 8 8 7 7
2 1 2 1 1 2 2 2 0 1 1 0 0 2 3 1 2 3 4 4 4 4 5 5 4 4 4 4 4 4 5 5 5 7 7 7 7 6 5 5 5 6 6 7 8 7 7 8 8 6 7 7 7 6 6 6 5 6 6 6 6 6 6 7 8 7 6 6 6 7 6 6 7 7 7 7 7 7 7 8 8 8 8 9 8 7 8
4 2 2 2 2 2 3 3 2 2 1 1 3 3 3 2 1 2 2 1 3 5 4 4 3 4 3 3 3 3 4 4 5 6 7 8 7 5 4 5 4 5 6 6 5 5 6 6 6 7 8 8 8 7 6 6 6 5 5 5 6 6 6 6 7 7 7 7 7 7 6 6 7 7 6 7 7 7 8 8 8 8 8 7 7 7 8
3 1 1 1 2 3 2 2 3 3 1 3 3 4 3 1 1 1 1 2 6 9 11 11 12 12 12 13 13 12 5 4 6 5 5 7 6 6 5 4 4 4 4 5 6 6 6 6 7 8 9 9 9 8 8 8 7 6 6 6 7 7 7 6 7 7 7 7 7 7 7 7 7 7 7 8 7 7 7 7 7 7 8 7 6 5 7
3 4 4 3 1 1 2 1 1 1 1 2 1 1 2 3 1 0 6 10 9 10 9 8 8 8 7 3 2 3 9 15 5 3 3 4 5 4 5 5 5 4 5 5 6 4 4 6 10 11 9 9 8 8 8 8 8 8 8 8 7 7 7 7 7 6 6 7 7 7 7 8 8 7 8 7 7 7 7 7 7 7 7 7 7 7 7
4 4 3 3 3 4 2 0 1 1 1 1 3 4 5 5 12 14 13 11 11 7 6 4 4 5 6 9 11 9 8 6 6 1 1 2 2 3 4 4 4 5 5 6 8 5 4 6 10 16 11 8 9 8 8 13 8 8 8 8 8 8 7 7 6 7 7 6 7 7 7 8 8 8 8 8 8 8 8 8 8 8 7 7 8 8 7
4 5 5 4 4 5 5 4 3 3 2 3 2 3 4 6 11 10 8 7 7 5 5 6 6 5 4 2 4 2 4 4 4 4 5 5 4 5 5 3 2 2 6 8 2 1 3 5 12 10 7 8 8 8 10 16 13 9 8 8 8 8 8 8 7 7 7 7 6 7 7 8 8 8 8 8 8 9 9 9 9 9 8 7 7 8 8
6 5 5 4 5 5 4 5 4 4 3 3 3 3 4 7 10 9 7 5 4 6 5 4 5 4 4 6 5 5 4 3 4 6 6 6 5 6 7 8 8 7 5 6 4 2 1 3 4 5 6 6 7 8 10 15 16 10 9 8 8 7 8 8 8 8 7 7 6 7 7 7 8 9 9 9 9 9 9 10 10 9 8 8 8 8 8
3 4 3 4 4 4 4 4 3 3 2 2 3 3 3 6 7 7 5 3 3 4 5 4 4 5 7 8 7 6 6 7 6 6 6 6 6 5 5 6 6 5 6 7 7 5 3 3 4 5 6 6 6 6 6 11 13 9 9 9 9 8 8 8 8 8 7 7 8 8 7 8 9 10 10 9 9 9 9 9 10 9 9 8 9 9 9
2 2 2 3 3 3 3 4 3 3 2 3 4 3 4 7 6 6 4 4 4 3 3 3 4 6 6 7 9 8 6 4 5 6 6 5 4 6 7 9 7 7 6 5 4 5 3 4 5 4 4 5 6 7 7 10 10 8 9 9 9 9 8 8 8 9 8 8 8 8 8 8 8 9 10 10 10 10 9 9 10 9 9 9 9 9 9
1 1 2 3 3 2 2 2 3 4 3 3 3 2 3 4 6 6 4 3 3 2 1 1 4 4 4 2 2 3 3 4 4 4 5 7 8 7 6 9 4 4 5 6 6 3 2 4 3 2 4 9 8 10 10 7 8 8 8 9 9 9 9 9 9 9 8 8 8 8 7 8 8 8 9 10 10 10 10 10 9 9 9 9 10 10 10
1 1 2 4 4 4 3 4 4 3 3 4 4 4 3 4 6 5 5 3 3 1 0 1 1 1 0 0 1 1 1 2 4 5 5 5 4 3 6 4 2 4 7 6 6 6 7 6 8 10 14 13 9 12 12 8 7 8 8 9 9 10 9 9 9 9 8 8 8 8 8 8 8 8 9 9 9 10 11 11 10 10 10 10 10 10 10
1 2 3 4 4 4 4 4 4 4 5 5 5 4 4 3 3 6 5 5 3 3 3 2 2 2 1 1 2 3 5 3 3 3 2 4 4 6 7 8 5 2 4 6 7 7 7 8 7 11 14 16 16 17 11 7 8 8 9 9 9 10 10 9 9 9 9 9 9 8 9 9 9 9 9 9 9 9 10 11 11 11 11 11 10 10 11
4 4 4 4 4 4 4 4 4 4 3 3 5 6 5 5 4 1 5 4 5 5 3 4 5 5 4 4 5 6 6 5 4 3 2 5 6 7 2 6 6 5 5 7 6 6 7 7 10 14 14 17 17 15 10 7 7 9 9 9 10 10 10 10 11 10 10 10 10 9 9 9 9 10 9 9 9 9 9 10 11 11 11 11 11 11 11
5 4 4 5 4 2 2 2 2 3 4 4 4 5 4 4 4 3 2 2 2 3 3 3 3 4 4 4 4 4 4 5 5 4 6 7 7 6 0 1 2 4 8 9 6 6 7 10 13 14 16 17 17 12 7 4 5 6 6 9 10 9 10 10 10 10 10 10 10 10 9 9 9 9 10 9 10 10 10 10 9 10 11 12 12 12 11
3 3 3 3 2 3 3 2 2 4 4 4 5 5 5 4 4 3 3 3 1 1 3 3 3 4 4 4 4 4 4 5 5 6 6 6 6 7 7 5 1 3 3 6 6 6 6 7 10 14 15 16 16 7 3 5 8 5 2 7 5 5 9 9 10 11 10 10 11 11 11 11 10 10 9 10 10 10 10 10 10 10 10 10 10 12 12
3 3 3 4 4 4 3 3 4 4 2 2 2 2 3 3 4 4 5 4 4 3 2 2 3 4 4 3 4 4 5 4 5 7 4 5 5 5 5 6 5 5 4 4 6 7 11 11 12 12 13 14 10 4 3 7 1 4 10 9 7 8 8 7 8 8 9 10 10 10 9 10 10 9 9 10 10 10 10 11 11 10 9 10 11 11 12
1 1 2 2 3 3 2 3 3 1 1 3 2 2 2 3 4 4 4 4 4 5 6 5 4 4 4 4 4 4 3 2 4 6 2 1 3 4 5 5 8 8 6 6 7 7 10 12 12 13 13 11 5 3 7 8 9 7 7 8 9 10 8 1 6 6 5 6 9 10 10 11 11 10 11 11 10 10 10 10 10 10 11 11 11 11 11
1 3 4 4 2 2 1 2 2 3 4 3 2 3 3 4 5 5 2 2 3 3 4 5 5 6 6 7 5 4 3 3 3 4 6 6 5 4 3 3 3 5 6 5 5 6 7 11 12 11 9 5 3 1 1 3 4 6 5 5 7 5 6 4 5 5 7 9 8 7 9 10 10 12 12 11 11 10 10 10 10 12 18 14 11 11 11
3 2 2 1 1 1 1 2 1 1 2 1 1 2 3 3 3 3 3 4 4 4 3 4 4 5 6 5 6 7 7 7 6 5 5 5 4 4 4 3 3 3 3 4 5 5 6 5 6 6 5 1 3 3 5 6 7 6 7 7 9 11 9 6 6 7 7 8 8 9 9 8 9 11 11 11 11 11 11 10 10 9 10 10 11 11 11
1 0 1 1 1 0 0 0 1 2 2 2 3 3 3 3 3 4 5 6 5 3 4 4 6 6 6 5 5 5 6 7 6 6 7 7 6 5 4 5 5 6 6 6 5 4 3 4 4 3 2 2 2 3 5 7 7 7 9 10 9 10 9 9 10 11 12 11 9 8 10 9 9 9 9 10 10 11 11 11 10 10 10 10 11 11 11
Wind_Direction
171 216 249 189 154 171 164 186 251 270 280 164 166 231 188 134 148 194 236 151 168 208 200 185 188 179 183 184 189 196 195 186 189 193 198 227 230 226 211 214 211 189 176 183 182 192 205 201 208 220 225 233 234 246 44 71 82 100 111 148 176 192 191 201 206 200 210 225 214 203 200 202 205 209 211 213 210 205 197 194 191 190 188 194 190 207 189
123 158 219 288 184 183 152 184 217 213 267 270 243 205 173 151 140 160 143 153 172 197 203 194 194 185 172 179 172 133 151 183 191 191 203 201 195 201 203 207 214 222 212 185 159 147 165 182 185 185 203 211 204 175 98 116 137 166 188 197 192 194 201 201 205 207 202 201 204 209 205 200 203 206 210 214 206 204 203 199 197 190 192 192 191 174 166
265 234 241 141 227 174 221 236 224 242 257 292 232 109 108 101 80 102 115 119 179 259 197 213 156 147 133 121 158 184 181 167 179 192 200 196 199 207 200 201 219 232 276 333 306 263 239 206 194 180 198 207 93 88 131 140 154 175 189 200 198 202 207 198 199 205 204 206 199 201 204 202 202 204 209 212 210 203 203 205 201 196 190 194 182 174 167
304 278 124 340 266 215 198 217 250 260 135 77 171 133 170 127 157 150 127 133 179 245 73 79 123 135 147 164 173 166 178 185 187 193 203 196 211 209 200 211 231 248 236 245 245 242 229 239 225 234 314 11 78 120 143 163 177 180 189 200 201 199 200 201 203 202 204 192 189 191 155 104 51 309 226 192 205 198 198 201 209 197 189 187 173 167 162
264 247 153 161 86 51 8 265 239 203 196 136 154 116 70 141 145 139 152 205 194 161 152 121 126 143 156 153 165 172 192 201 193 195 191 199 211 209 198 200 224 236 230 218 211 223 223 163 20 31 44 30 4 334 310 306 304 229 239 236 230 222 208 201 197 198 195 179 122 97 125 147 138 113 30 279 179 181 186 192 185 186 177 166 165 161 158
251 296 344 305 136 251 237 234 183 150 122 143 117 142 204 208 121 205 180 175 130 128 142 137 159 154 172 173 195 181 175 182 195 201 180 192 201 208 187 198 212 231 233 86 79 53 55 78 84 155 107 143 187 203 238 271 353 1 352 1 338 328 330 319 314 297 278 106 95 98 99 145 156 151 169 181 293 178 154 156 162 162 164 162 161 162 163
239 310 52 55 185 231 239 266 168 137 133 131 125 161 193 168 118 77 72 102 136 160 159 161 163 166 159 154 154 181 173 150 160 172 187 186 202 201 166 188 217 216 207 100 68 75 95 106 125 137 168 199 179 199 197 189 169 162 179 169 193 213 219 228 15 18 47 93 124 100 140 184 195 181 125 122 211 232 179 166 161 159 159 159 164 163 159
48 67 57 82 245 235 247 37 121 132 93 112 100 57 313 306 162 146 128 110 139 123 106 110 138 140 144 109 111 169 174 153 152 159 184 188 192 190 167 175 191 183 181 118 115 127 138 119 125 161 184 191 188 208 204 202 187 158 163 151 206 232 220 145 124 100 120 136 141 174 192 197 206 188 174 183 186 205 180 152 142 145 150 154 156 155 152
191 195 138 208 283 320 350 66 15 106 133 264 147 168 295 323 325 124 127 134 139 128 137 143 132 112 94 100 57 288 200 196 184 172 183 178 181 165 146 164 177 145 111 120 127 130 135 135 152 160 211 216 214 210 241 257 60 66 69 3 239 289 309 34 124 136 142 156 178 204 192 195 207 200 197 203 189 183 174 166 158 162 155 155 151 147 148
125 114 38 357 33 218 279 245 284 313 201 133 167 121 314 298 358 118 131 143 143 129 127 118 119 109 91 117 212 251 234 154 147 161 153 131 117 115 130 126 121 142 140 114 122 138 150 162 132 162 212 226 198 41 265 194 164 152 162 188 195 193 203 189 154 159 165 175 185 195 202 199 199 207 207 206 203 182 185 165 160 155 142 135 144 149 147
111 351 159 210 152 241 217 248 246 264 302 126 120 70 3 274 34 136 126 131 136 136 136 144 143 102 117 215 228 238 209 147 123 118 132 137 136 131 136 144 147 130 122 125 133 136 150 173 189 191 215 232 58 60 13 335 319 162 138 128 125 137 145 151 130 129 160 187 194 196 206 213 203 192 199 204 167 126 146 287 110 126 136 134 129 135 149
158 146 144 260 198 177 253 242 273 271 114 94 64 84 256 269 45 136 134 140 145 152 147 147 141 133 163 215 229 208 186 169 156 138 147 144 123 101 118 108 113 117 124 122 110 103 149 213 193 161 125 77 95 113 115 24 356 7 44 88 98 108 123 139 152 161 178 194 203 199 207 222 225 186 162 158 164 169 172 172 165 165 133 147 147 151 159
199 192 245 291 296 258 234 224 255 11 67 74 81 178 233 248 157 141 136 141 147 148 155 169 147 223 187 189 175 152 165 126 148 78 99 109 121 127 121 117 114 117 132 140 144 158 195 189 117 88 78 73 83 93 92 92 85 42 35 40 56 62 71 92 127 148 178 192 59 61 70 99 77 103 176 178 173 172 171 173 171 173 169 166 156 156 154
181 163 179 216 226 230 189 252 177 88 80 182 206 234 199 132 153 146 136 135 148 147 159 153 137 163 188 127 122 131 144 144 123 108 109 104 99 104 113 125 129 126 126 123 128 136 172 183 142 131 119 112 99 78 107 119 130 103 86 70 59 55 51 52 52 58 59 67 79 84 83 89 86 77 57 112 140 123 145 157 169 169 168 166 162 156 151
60 85 202 315 265 278 200 131 6 21 109 230 200 170 4 144 131 132 136 138 160 132 118 131 136 133 121 129 138 133 125 117 120 121 118 120 128 125 113 104 116 121 113 113 114 130 141 148 143 137 126 128 129 130 128 138 125 109 100 81 71 57 46 43 36 36 43 62 80 93 90 84 91 79 71 77 79 90 87 86 85 73 63 98 151 151 135
121 132 209 209 209 247 286 156 177 236 187 173 151 131 93 102 118 121 120 122 148 138 131 145 138 137 125 108 124 119 117 116 118 117 116 119 115 93 95 118 125 118 113 113 119 94 346 146 135 147 143 132 130 131 136 127 111 111 104 100 92 82 68 41 32 34 42 51 62 76 88 89 85 88 87 93 93 90 90 96 97 99 89 50 50 132 143
114 187 219 259 282 249 263 124 134 120 72 87 165 122 130 131 126 140 124 143 152 139 135 138 139 128 142 153 153 143 151 138 131 130 137 138 131 124 126 132 131 126 137 140 135 114 107 122 138 149 159 142 142 140 148 125 124 122 120 116 110 110 97 85 60 56 59 65 70 70 89 100 101 98 93 93 87 72 87 83 77 57 360 129 100 43 313
281 252 229 268 317 29 41 0 95 117 94 100 151 121 116 136 151 150 140 153 146 140 138 128 134 131 142 133 137 123 132 129 127 126 130 126 122 121 119 121 126 129 123 123 129 132 137 151 138 138 147 149 145 153 140 135 139 136 131 128 124 120 114 109 98 89 83 85 80 86 88 91 106 114 113 102 96 91 88 84 76 84 89 55 87 91 52
62 307 319 1 356 7 54 67 21 55 108 133 121 96 113 142 137 129 132 142 146 148 145 135 136 134 129 129 138 133 129 134 138 137 140 144 142 140 140 145 134 131 135 133 142 145 142 162 144 137 132 152 149 147 143 148 138 129 133 133 131 129 126 123 110 104 107 89 106 103 99 96 90 94 108 116 113 107 106 105 106 105 89 94 87 97 109
87 202 290 309 310 341 334 6 96 91 88 92 100 120 129 130 134 136 148 134 133 136 128 137 134 151 141 132 142 140 144 144 141 139 144 141 131 136 140 143 138 135 141 145 145 145 142 149 141 146 149 155 154 145 136 134 120 119 125 133 128 126 124 123 116 132 144 131 100 54 42 45 81 102 100 102 108 115 127 129 124 112 108 108 118 124 114
260 308 307 340 354 28 9 9 74 91 117 104 78 83 98 106 107 103 110 141 149 141 150 151 144 149 162 149 148 143 144 137 136 140 140 140 139 141 140 147 146 146 148 145 147 147 151 147 147 156 154 148 149 146 135 125 126 126 135 135 121 120 132 144 131 110 83 64 69 83 77 64 43 18 13 54 89 77 42 81 117 129 126 114 114 107 116
351 197 266 348 63 315 317 333 298 192 169 104 105 90 79 89 98 104 96 57 69 130 151 155 156 152 163 152 141 143 149 151 149 143 139 139 135 137 144 139 143 140 143 146 148 149 154 151 144 156 147 154 153 141 128 129 130 134 134 127 130 141 132 120 114 104 78 83 82 90 89 84 73 60 51 50 32 81 95 72 82 76 91 121 129 128 114
230 259 265 221 172 211 236 261 288 263 178 98 98 107 112 110 121 121 114 108 89 91 108 155 147 152 148 148 138 139 148 153 150 146 143 141 139 140 142 134 141 143 146 148 144 149 158 149 147 140 138 140 129 133 138 140 137 135 136 137 136 128 121 113 117 114 108 97 102 102 100 99 89 95 81 44 36 31 35 90 99 95 93 94 94 97 114
235 234 266 198 137 49 285 324 299 260 112 102 102 105 114 127 125 116 119 134 135 153 171 210 151 137 132 144 139 134 125 125 131 141 144 142 143 143 146 147 148 144 145 148 151 156 157 153 155 146 138 137 122 127 135 146 146 142 144 139 136 131 126 126 125 123 122 124 118 106 102 107 107 109 98 91 53 29 28 54 102 110 106 100 97 90 89
181 220 259 286 214 214 232 267 317 337 158 130 134 145 137 117 113 121 126 132 138 146 163 167 80 119 135 145 139 139 143 151 150 149 146 144 144 143 147 145 150 152 158 155 150 146 148 152 148 146 143 147 138 128 124 138 145 140 143 142 135 132 131 127 126 130 131 134 124 118 116 116 115 119 118 116 104 84 39 50 60 63 97 109 105 105 103
166 231 305 6 31 16 343 22 16 5 236 141 110 129 138 127 131 124 138 147 163 171 161 150 125 137 141 140 141 139 137 146 147 139 140 145 142 140 150 158 158 153 151 153 153 151 154 161 156 143 151 171 158 150 137 137 140 142 143 145 145 148 147 141 133 132 142 143 133 129 121 117 117 112 111 114 121 118 117 110 72 55 39 63 113 115 116
19 214 77 20 10 353 15 46 301 296 282 224 133 150 146 126 114 118 127 137 159 174 159 150 148 144 130 135 139 145 142 139 136 141 149 153 157 161 159 153 155 155 154 152 154 158 160 161 159 158 172 175 160 149 141 136 131 131 138 143 147 157 153 143 139 143 150 151 144 133 133 133 128 122 120 128 131 131 135 131 124 117 127 61 52 125 132
31 12 89 122 72 297 338 337 300 293 236 143 132 136 133 116 113 114 117 114 106 91 108 142 139 134 132 143 132 131 129 140 147 154 153 163 160 151 152 155 154 154 155 159 163 162 159 161 164 170 165 159 154 147 143 138 136 138 144 147 150 150 152 148 144 148 151 156 147 143 141 137 136 128 131 133 135 135 124 116 114 119 98 79 87 39 129
29 7 60 111 96 223 272 12 18 1 343 344 76 137 131 117 122 124 140 155 157 133 124 138 132 137 143 149 141 144 150 147 149 160 166 163 156 158 158 154 154 155 158 162 162 162 163 159 166 160 169 161 142 143 139 140 140 144 145 150 150 151 153 155 158 151 152 150 148 144 136 136 135 132 127 123 124 125 123 123 125 117 119 118 106 87 73
287 325 35 25 33 84 78 48 358 346 353 0 7 319 146 133 123 139 149 161 156 144 164 145 127 112 129 144 153 152 158 164 164 162 162 164 159 161 164 158 141 143 148 163 172 173 168 175 166 158 176 171 148 141 142 142 148 151 152 156 158 159 159 161 158 151 149 153 154 140 138 143 139 136 131 134 136 136 133 135 133 134 132 138 139 141 147
18 22 36 30 25 35 91 115 76 355 13 357 7 38 356 129 144 156 165 164 139 129 150 163 169 144 154 171 164 157 155 154 153 158 164 164 165 168 170 163 159 172 180 185 180 173 171 180 175 168 179 170 158 149 144 145 145 146 142 148 153 158 158 158 158 154 151 151 149 144 146 140 142 139 139 137 134 132 137 137 139 138 141 144 145 154 150
65 20 18 25 39 26 21 29 61 359 343 357 30 25 276 180 159 169 165 163 177 164 163 161 163 168 171 162 155 149 151 154 156 157 158 165 174 182 181 182 182 175 175 177 176 171 168 171 179 179 172 169 161 155 149 150 146 147 157 155 148 152 157 153 149 154 152 154 153 152 152 144 146 145 141 144 147 148 148 147 148 149 150 152 159 160 153
80 20 349 343 1 359 338 321 236 240 268 305 267 276 326 39 130 151 168 168 157 165 160 176 182 158 150 146 148 150 155 148 144 150 157 172 186 191 191 182 179 179 183 184 183 179 172 176 185 168 169 168 165 160 158 158 159 157 158 149 153 155 157 160 159 155 155 153 160 163 156 152 150 151 152 148 148 150 152 153 151 155 157 164 166 164 169
144 167 200 205 196 212 249 277 283 270 261 285 289 305 329 12 95 144 162 273 204 169 163 179 160 130 121 122 144 145 138 127 133 154 171 177 185 188 190 189 179 190 197 194 187 181 190 194 179 168 175 171 173 167 166 164 165 163 155 156 157 157 160 165 158 158 162 166 169 167 157 154 155 154 152 150 151 155 158 157 160 157 159 164 167 166 171
133 181 227 239 201 198 189 181 210 237 290 335 310 305 308 352 148 202 188 43 20 32 44 53 53 45 33 16 5 350 329 198 176 170 170 170 171 172 168 156 164 178 206 216 201 197 201 198 189 177 177 177 176 175 169 169 173 163 165 165 167 170 171 169 167 168 171 173 166 161 159 158 159 156 153 152 158 161 159 162 160 162 163 164 161 159 173
63 34 14 23 32 70 83 122 210 233 303 308 328 321 310 326 29 67 58 57 63 63 57 70 77 89 101 102 79 33 332 318 304 148 149 167 166 150 147 159 167 183 197 226 235 218 214 203 188 178 176 179 181 185 170 168 173 172 174 170 175 175 175 176 178 175 170 164 167 167 165 164 160 161 161 160 161 159 162 163 167 170 170 169 165 168 171
35 49 33 43 38 56 71 54 236 203 156 75 48 46 30 29 53 70 75 56 43 41 58 44 109 125 166 178 189 174 173 202 265 302 81 61 63 102 144 159 172 188 198 217 235 212 214 220 198 181 173 181 180 187 178 164 166 172 171 172 173 172 174 178 179 177 179 177 170 165 168 165 168 169 167 164 165 169 168 169 175 176 174 171 171 171 168
25 47 54 50 50 53 43 32 43 80 65 34 17 45 53 53 98 105 92 133 153 187 200 174 194 190 177 62 52 82 150 161 146 109 90 84 70 51 19 9 320 276 213 224 243 256 225 241 214 191 185 182 184 185 181 169 166 164 168 173 174 174 176 179 181 185 183 187 181 171 168 171 171 174 173 171 173 174 175 176 178 177 175 170 171 175 173
36 30 40 41 51 56 52 32 32 40 57 64 16 10 18 67 105 126 145 172 186 186 203 220 160 160 159 139 160 177 172 171 146 134 135 142 140 139 172 190 199 215 248 322 334 299 236 270 239 207 199 202 192 191 188 177 165 166 173 174 175 176 181 181 184 189 190 187 184 184 178 172 174 178 176 178 178 181 180 180 180 180 174 170 170 177 178
48 53 44 47 48 50 58 47 40 36 26 68 77 32 8 73 99 109 125 149 217 208 200 188 188 193 176 164 184 193 183 161 158 156 163 160 165 185 231 250 232 212 215 252 286 299 269 243 236 219 211 217 206 199 201 183 169 174 176 178 179 181 182 185 184 186 192 187 194 194 188 180 177 180 181 180 181 183 185 185 185 182 178 174 178 180 180
40 66 39 54 42 52 67 52 20 358 37 38 35 33 65 99 109 113 131 161 205 220 224 214 208 223 222 193 182 191 182 166 162 171 161 149 168 195 209 236 221 197 199 197 234 275 323 16 16 333 287 248 227 208 208 191 177 180 182 184 184 185 185 185 187 189 189 190 196 193 193 186 177 177 182 182 184 187 187 185 186 187 183 181 184 184 188
355 45 43 18 355 20 58 52 40 22 1 6 23 36 59 107 120 135 157 164 178 209 211 231 251 245 256 270 130 146 153 167 172 186 184 187 194 190 207 249 212 161 172 200 223 218 90 123 120 183 279 280 265 225 205 194 182 181 185 188 189 189 190 191 192 195 192 191 193 195 193 187 182 181 181 183 185 189 189 189 186 188 191 189 186 186 189
328 340 30 43 36 17 13 20 22 17 359 353 353 350 9 100 125 129 145 155 167 181 177 330 341 18 48 17 348 324 223 174 177 194 224 253 252 218 224 279 53 159 177 170 169 179 193 187 193 213 211 216 236 244 220 194 184 188 189 193 191 192 192 194 197 195 192 192 194 196 195 193 192 188 183 186 185 186 189 189 189 189 192 192 192 191 193
60 71 73 68 50 50 44 39 31 28 17 347 339 352 358 11 143 153 153 158 174 188 177 176 161 166 234 233 235 264 275 261 240 219 223 262 276 253 236 251 257 229 175 168 179 197 202 209 208 220 224 225 229 235 227 203 189 189 192 195 195 194 194 197 197 196 195 197 197 198 198 199 199 195 193 192 189 184 186 189 191 190 190 192 194 194 195
6 53 71 76 68 50 34 33 31 12 342 334 351 356 3 2 3 113 151 159 170 192 198 182 177 186 199 199 211 223 235 229 224 188 214 259 275 283 238 218 227 216 177 179 193 205 216 217 221 221 223 225 230 235 234 227 205 193 189 196 197 199 200 198 198 200 199 198 200 200 201 202 202 201 199 199 197 192 188 187 191 190 188 192 193 194 195
73 69 66 58 46 21 5 17 348 14 15 14 4 359 358 18 33 36 95 144 180 198 204 209 207 204 196 212 238 250 259 265 254 222 219 226 242 256 317 94 197 209 206 198 208 212 227 233 234 232 231 231 232 233 217 214 289 291 237 195 193 201 203 203 202 202 201 203 202 203 205 205 206 207 205 202 201 201 200 192 186 189 191 192 192 193 193
60 51 51 56 13 331 323 340 8 8 15 32 20 343 331 337 357 354 343 346 338 231 207 213 221 228 210 204 201 211 241 255 272 257 252 257 258 264 266 273 226 144 187 213 226 229 232 239 242 242 243 245 245 247 250 230 230 212 306 325 306 239 206 206 205 204 204 206 205 206 205 206 206 207 206 208 206 204 203 198 195 194 194 192 192 191 191
47 40 19 15 9 342 11 29 30 18 23 356 332 331 329 349 357 345 343 344 339 331 312 268 263 271 261 239 226 224 217 217 286 290 235 238 260 264 282 279 259 233 221 237 254 256 251 245 242 246 251 254 252 223 73 60 75 215 229 215 209 255 264 238 209 205 207 207 207 205 210 211 211 209 204 202 204 205 203 200 200 198 195 195 193 191 191
69 58 351 13 17 26 33 13 27 31 297 304 352 319 315 358 355 3 359 360 11 10 360 0 356 332 311 282 268 257 267 226 205 262 302 175 217 226 236 243 253 246 237 240 249 258 260 257 256 252 253 254 251 173 155 187 220 241 237 229 225 228 225 239 314 297 264 221 200 204 206 209 209 210 210 208 207 203 198 201 201 196 197 198 198 194 193
342 20 1 334 325 327 328 356 338 277 283 323 317 326 357 30 27 349 339 4 15 31 28 21 21 16 9 11 5 338 308 274 263 265 277 288 290 286 276 259 250 244 238 232 244 256 267 269 270 267 259 251 236 163 136 201 236 242 282 318 323 335 323 309 227 266 295 292 281 240 213 204 209 210 209 210 210 205 201 201 199 200 194 191 195 196 196
48 50 355 319 276 256 139 144 168 22 350 348 342 9 44 43 3 333 345 9 37 39 31 14 15 11 18 10 8 8 5 1 355 340 318 299 296 294 302 299 285 287 276 258 251 254 264 271 274 279 296 22 107 176 191 198 205 193 186 187 216 224 208 212 233 242 236 237 258 278 283 258 219 204 208 210 208 206 204 200 199 196 192 192 194 195 196
147 185 296 315 56 40 293 304 50 64 353 348 30 18 353 357 1 354 352 11 32 33 40 39 14 7 14 16 26 19 8 10 1 353 1 360 351 352 345 352 354 343 337 334 319 305 293 280 283 275 230 169 173 196 216 213 203 209 214 219 222 228 227 218 213 215 218 221 218 228 246 260 279 273 230 208 207 205 202 200 198 195 192 192 192 192 193